Location: El Carrer d�Abaix
(41.5797°N, 2.1791°E)
Time: 22:40:54
(UTC+00:00)

ATLAS 2AS CENTAUR R/B - Pass Details

Date: 06 June 2020
Orbit: 925 x 1286 km, 63.7° (Epoch: 24 June)

Event Time Altitude Azimuth Distance (km) Brightness Sun altitude
Rises 21:51:43 0° 226° (SW) 4,197 5.7 -20.0°
Reaches altitude 10° 21:54:32 10° 230° (SW) 3,256 5.1 -20.3°
Maximum altitude 22:02:25 62° 310° (NW) 1,435 3.5 -21.0°
Drops below altitude 10° 22:10:20 10° 30° (NNE) 3,260 5.7 -21.6°
Sets 22:13:10 0° 34° (NE) 4,203 6.2 -21.8°
